Vorticity
nan nan nan nan nan nan nan nan nan nan nan nan nan nan nan nan nan nan nan nan nan nan nan nan nan nan nan nan nan nan nan nan nan nan nan nan nan nan nan nan nan nan nan nan nan
nan 7 7 6 7 7 7 7 7 7 7 7 8 8 8 15 21 8 12 13 12 6 3 5 7 5 7 8 3 7 8 9 6 5 5 6 9 10 13 1 4 17 10 10 nan
nan 7 7 7 7 7 7 7 7 7 7 8 9 8 9 16 15 14 17 12 10 -0 1 6 9 10 7 6 8 6 5 13 9 0 2 -1 17 20 4 5 11 5 2 5 nan
nan 7 7 7 7 7 8 7 7 7 8 9 9 11 18 17 5 13 13 8 7 5 6 9 8 8 9 8 7 2 7 5 9 11 3 2 10 14 2 14 14 7 3 4 nan
nan 7 7 7 7 8 8 8 8 7 8 10 10 15 17 10 9 13 10 6 7 8 7 8 7 6 5 8 10 3 5 12 7 11 11 14 6 6 13 16 8 6 5 4 nan
nan 7 7 7 7 8 8 9 8 8 8 10 11 14 10 3 17 14 2 4 6 6 8 6 6 6 7 8 6 6 12 11 6 7 14 17 10 14 19 10 8 5 4 3 nan
nan 7 7 7 7 8 9 9 9 9 9 10 13 11 8 6 3 5 9 4 4 5 6 4 5 2 6 11 10 10 14 9 7 22 17 0 8 14 12 7 5 4 3 3 nan
nan 7 8 8 8 8 9 9 11 13 15 14 15 10 3 8 8 4 9 5 11 7 4 5 7 8 7 4 8 14 13 11 9 12 7 3 14 14 8 6 4 4 4 4 nan
nan 7 8 8 9 10 10 11 20 23 18 11 9 6 5 12 15 13 10 6 6 10 10 10 10 9 8 11 6 11 11 2 14 15 5 5 19 13 4 4 6 5 5 4 nan
nan 8 8 8 8 9 16 27 23 16 16 7 3 6 10 13 10 12 6 9 8 9 11 12 10 7 7 11 8 5 4 7 8 6 10 7 18 14 7 6 6 5 4 4 nan
nan 7 8 8 9 11 22 21 11 13 10 7 3 1 -1 9 11 10 11 8 10 12 10 6 8 7 5 3 4 3 5 4 5 13 17 12 14 11 5 4 7 6 4 6 nan
nan 8 8 8 8 24 19 8 9 5 8 12 8 8 8 8 6 6 14 11 9 5 4 11 10 6 6 5 7 3 5 9 9 16 22 18 7 11 11 10 7 5 6 4 nan
nan 7 8 8 27 27 9 4 5 12 11 12 17 10 18 12 6 9 9 7 6 7 10 8 5 10 3 6 11 9 8 8 6 9 12 9 4 9 9 16 15 10 9 6 nan
nan 8 6 22 27 9 8 7 10 11 9 15 11 10 14 7 11 17 7 6 8 8 11 5 11 12 6 8 11 7 11 5 10 9 9 1 7 6 12 10 12 12 10 5 nan
nan 8 13 24 12 7 5 2 15 11 11 15 10 12 11 3 5 13 10 9 12 7 11 9 12 11 11 7 6 8 10 14 13 11 4 4 16 11 12 4 12 14 10 8 nan
nan 7 19 19 11 6 3 14 15 8 10 12 10 7 5 5 6 11 9 7 10 11 7 12 7 11 11 11 7 10 10 10 11 13 8 11 6 9 11 9 7 11 12 5 nan
nan 15 22 11 6 8 11 16 12 5 5 11 12 12 9 8 9 10 8 7 4 7 7 13 12 14 11 9 12 12 8 8 7 12 11 10 5 9 6 14 15 7 7 4 nan
nan 30 25 7 5 6 13 11 7 7 9 8 8 14 11 11 14 11 8 5 8 10 12 7 8 12 16 15 11 7 7 8 10 7 10 10 5 16 15 2 14 21 11 4 nan
nan 28 10 12 14 6 9 9 7 7 6 8 12 11 8 10 14 18 9 4 14 12 8 4 9 8 8 14 14 8 10 10 5 7 11 5 6 13 21 15 13 18 12 5 nan
nan 12 12 17 10 6 9 7 9 6 10 11 11 6 8 8 9 11 9 12 7 8 15 7 13 7 6 12 15 15 5 6 10 14 6 8 12 10 13 22 18 16 10 7 nan
nan 12 14 12 3 9 10 8 9 10 11 9 8 8 8 11 9 9 10 11 5 9 10 13 13 7 9 6 5 7 9 12 15 9 8 9 6 14 14 17 16 13 11 10 nan
nan 10 11 9 8 9 9 12 8 5 7 11 12 10 9 9 12 11 11 7 9 16 8 11 9 14 7 6 12 14 8 5 5 8 10 10 5 12 12 11 11 23 17 6 nan
nan 9 10 12 7 9 11 10 8 10 11 9 7 11 10 9 10 11 11 5 9 13 9 10 8 8 10 14 12 10 10 11 8 16 11 5 9 6 10 11 4 7 12 14 nan
nan 9 12 8 11 10 9 13 9 7 11 9 8 10 9 9 12 9 7 8 12 16 6 11 12 12 10 4 2 0 6 15 12 6 14 5 9 9 13 8 8 4 3 10 nan
nan 12 9 2 8 11 10 11 11 7 5 6 13 15 12 9 10 5 9 12 9 7 15 12 10 9 7 6 9 7 5 11 17 11 8 13 11 6 12 13 11 14 14 8 nan
nan 8 13 10 8 11 8 14 11 7 8 10 11 8 13 12 7 4 7 11 6 5 11 12 12 11 12 9 9 10 13 15 11 20 16 9 13 17 10 8 9 13 9 11 nan
nan nan nan nan nan nan nan nan nan nan nan nan nan nan nan nan nan nan nan nan nan nan nan nan nan nan nan nan nan nan nan nan nan nan nan nan nan nan nan nan nan nan nan nan nan
CAPE
3 3 5 4 4 2 3 4 3 2 2 1 1 1 3 3 0 0 0 0 0 195 184 59 0 0 0 2 0 0 10 1 2 78 194 27 85 115 9 28 5 0 0 0 23
5 4 4 4 4 3 3 2 4 3 2 2 2 1 2 3 0 0 0 0 77 174 0 0 0 0 0 5 0 3 8 14 4 61 312 83 77 114 2 34 15 0 0 0 0
5 4 4 4 3 3 5 4 3 3 3 2 3 1 1 0 0 0 0 1 230 85 0 0 0 0 0 0 0 0 11 36 65 75 42 71 241 5 35 32 0 0 0 0 0
5 5 5 5 4 3 4 3 2 2 3 2 2 3 1 0 0 0 0 0 11 0 0 0 0 0 0 0 0 0 2 20 10 7 14 42 68 2 32 28 0 0 0 0 0
2 2 3 4 4 5 4 5 3 1 2 3 1 2 0 0 0 0 7 0 0 0 0 0 0 0 0 0 0 2 1 16 3 2 9 28 30 15 23 44 24 4 0 0 0
4 2 2 3 2 4 5 4 4 1 1 1 1 2 0 0 0 0 0 0 0 0 0 0 0 0 0 0 0 0 2 9 8 0 30 11 124 43 4 25 3 6 0 0 0
5 6 5 5 2 4 4 3 2 1 0 0 0 0 0 0 0 0 0 0 0 0 0 0 0 0 0 0 0 0 0 0 13 0 111 156 123 11 0 2 13 1 0 0 0
7 6 6 6 5 4 4 2 1 0 0 0 0 0 0 0 0 0 0 0 0 0 0 0 0 0 0 0 0 0 0 0 0 0 44 28 109 9 0 0 1 0 0 0 0
6 5 4 4 4 5 4 2 0 0 0 0 0 0 0 0 0 0 0 0 0 0 0 0 0 0 0 0 0 0 0 0 0 0 7 15 64 10 6 1 0 3 0 0 0
3 3 2 2 1 2 2 0 0 0 0 0 0 0 0 0 0 0 0 0 0 0 0 0 0 0 0 0 0 0 0 0 0 0 45 3 145 50 12 2 0 10 5 0 0
3 2 1 1 1 1 0 0 0 0 0 0 0 0 0 0 0 0 0 0 0 0 0 0 0 0 0 0 0 0 0 0 0 0 69 10 132 79 29 4 1 9 27 18 0
1 1 0 0 0 0 0 0 0 0 0 0 0 0 0 0 0 0 0 0 0 0 0 0 0 0 0 0 0 0 0 0 0 0 52 24 37 85 31 20 5 6 47 56 9
0 0 0 1 0 0 0 0 0 0 0 0 0 0 0 0 0 0 0 0 0 0 0 0 0 0 0 0 0 0 0 0 0 42 115 135 45 7 3 8 0 33 69 56 18
0 1 0 1 0 0 0 0 0 0 0 0 0 0 0 0 0 0 0 0 0 0 0 0 0 0 0 0 0 0 0 0 0 0 59 88 52 0 4 26 5 1 54 40 0
0 0 0 0 0 0 0 0 0 0 0 0 0 0 0 0 0 0 0 0 0 0 0 0 0 0 0 0 0 0 0 0 0 0 40 57 44 33 90 49 30 12 7 22 3
0 0 1 0 0 0 0 0 0 0 0 0 0 0 0 0 0 0 0 0 0 0 0 0 0 0 0 0 0 0 0 0 0 0 1 9 1 0 98 80 2 56 21 18 1
0 0 1 0 0 0 0 0 0 0 0 0 0 0 0 0 0 0 0 0 0 0 0 0 0 0 0 0 0 0 0 0 0 0 0 0 3 0 15 1 64 74 64 4 3
0 0 0 0 0 0 0 0 0 0 0 0 0 0 0 0 0 0 0 0 0 0 0 0 0 0 0 0 0 0 0 0 0 0 0 0 0 0 0 47 52 28 104 190 16
0 0 0 0 0 0 0 0 0 0 0 0 0 0 0 0 0 0 0 0 0 0 0 0 0 0 0 0 0 0 0 0 0 0 0 0 0 0 3 14 86 7 160 123 55
0 0 0 0 0 0 0 0 0 0 0 0 0 0 0 0 0 0 0 0 0 0 0 0 0 0 0 0 0 0 0 0 0 0 0 0 0 0 93 91 65 54 118 46 75
0 0 0 0 0 0 0 0 0 0 0 0 0 0 0 0 0 0 0 0 0 0 0 0 0 0 0 0 0 0 0 0 0 0 0 0 0 0 19 106 27 102 46 11 53
0 0 0 0 0 0 0 0 0 0 0 0 0 0 0 0 0 0 0 0 0 0 0 0 0 0 0 0 0 0 0 0 0 0 0 0 0 13 41 139 90 45 64 18 0
0 0 0 0 0 0 0 0 0 0 0 0 0 0 0 0 0 0 0 0 0 0 0 0 0 0 0 0 0 0 0 0 0 0 0 0 0 71 1 335 421 286 271 45 3
0 0 0 0 0 0 0 0 0 0 0 0 0 0 0 0 0 0 0 0 0 0 0 0 0 0 0 0 0 0 0 0 0 0 0 0 0 145 71 135 317 108 128 1505 1303
0 0 0 0 0 0 0 0 0 0 0 0 0 0 0 0 0 0 0 0 0 0 0 0 0 0 0 0 0 0 0 0 0 0 0 0 9 117 198 74 152 1209 1149 1168 1333
0 0 0 0 0 0 0 0 0 0 0 0 0 0 0 0 0 0 0 0 0 0 0 0 0 0 0 0 0 0 0 0 2 225 0 1 312 478 1040 1149 1186 1198 1407 1376 1633
0 0 0 0 0 0 0 0 0 0 0 0 0 0 0 0 0 0 0 0 0 0 0 0 0 0 0 0 0 0 0 11 422 258 198 35 1157 1160 1137 1051 1079 1132 1073 837 546